Dewpoint
46 45 45 44 44 44 43 43 42 42 40 39 37 37 36 36 35 35 34 34 34 34 33 32 32 32 33 31 30 28 27 26 26 26 26 25 23 22 22 22 22 22 22 23 23 23 23 24 25 26 26 25 24 23 21 21 21 21 22 22 21 22 22 22 21 21 22 22 23
46 45 45 45 45 44 43 42 42 41 39 38 37 36 36 36 35 34 34 34 33 33 34 34 33 32 31 30 29 27 26 25 25 25 25 23 22 21 21 22 21 21 21 21 22 23 23 24 25 25 25 25 24 23 21 21 20 21 21 21 21 22 22 22 22 22 22 23 23
46 45 45 44 44 43 42 41 41 39 39 38 37 36 36 36 35 34 34 34 34 35 37 36 34 31 30 28 27 25 24 23 23 23 23 23 22 22 22 22 22 22 22 21 21 21 23 24 25 25 25 25 24 23 23 23 22 21 21 21 21 22 22 21 22 22 23 23 23
45 45 45 44 43 43 42 41 40 39 38 38 37 36 36 36 35 35 34 34 36 38 38 36 32 29 27 25 25 24 24 24 23 22 22 23 23 23 23 22 22 22 21 21 21 21 22 23 25 25 25 23 23 22 23 23 21 21 21 22 22 22 21 21 22 23 24 24 24
46 45 45 44 43 43 42 41 40 39 39 38 37 37 36 36 35 34 34 34 36 37 37 35 29 26 25 24 23 23 24 25 25 24 23 23 23 23 23 23 23 22 22 21 21 21 21 23 24 24 24 23 22 22 21 21 21 21 22 23 22 22 22 22 23 24 24 25 24
46 46 45 44 44 43 43 42 41 40 39 39 38 37 37 36 35 34 33 33 37 37 34 30 28 25 24 23 22 22 23 24 24 23 22 22 22 23 23 22 21 21 21 21 21 20 20 21 23 24 23 23 20 20 21 21 20 21 21 22 23 23 23 23 24 25 25 25 24
46 46 45 45 44 43 43 42 42 41 41 40 39 39 37 36 34 34 33 34 37 35 30 26 25 24 22 21 22 22 22 23 22 22 21 22 22 22 21 21 21 21 21 21 21 20 20 21 23 24 23 23 23 21 20 21 21 21 21 21 23 24 24 23 25 25 25 25 24
47 46 46 45 44 44 43 43 43 42 42 41 40 39 38 36 34 34 33 33 34 32 28 26 23 22 21 21 21 21 21 21 21 21 22 22 21 21 20 19 19 19 19 19 20 20 20 21 23 23 23 23 23 22 21 20 20 20 20 21 23 24 24 22 23 25 25 25 24
47 46 46 45 44 43 43 43 43 42 42 41 40 39 37 35 34 33 32 32 33 31 28 25 23 21 21 20 19 19 19 20 20 20 20 20 19 19 18 18 18 18 18 18 18 18 19 21 22 22 22 23 23 21 20 19 18 18 20 22 23 25 25 24 24 25 25 25 24
46 45 44 44 43 43 43 42 42 41 41 40 39 37 35 34 33 31 30 30 31 29 26 24 23 22 21 20 20 19 19 19 19 19 19 19 18 18 17 17 17 17 18 18 18 19 19 20 20 19 20 20 20 19 19 19 18 18 20 23 22 23 23 24 24 24 24 24 23
44 43 43 43 43 42 41 41 40 39 38 37 35 34 32 32 30 29 28 29 28 26 24 23 21 20 20 19 19 19 19 18 18 18 18 18 18 17 16 16 16 16 16 17 18 18 19 19 18 18 18 20 19 19 18 19 19 19 19 21 22 21 22 23 23 23 23 23 22
43 43 42 42 41 41 40 39 38 37 35 33 31 30 29 28 27 26 25 25 24 23 22 22 21 19 19 19 19 19 19 18 17 17 17 17 17 16 16 16 16 16 16 16 18 18 18 18 17 17 18 19 19 19 19 19 19 19 19 20 21 21 21 21 21 21 21 22 22
43 42 42 41 41 40 39 38 37 34 32 30 29 27 27 27 26 25 24 23 23 22 21 21 21 20 19 19 19 18 18 17 17 17 17 17 16 16 16 16 16 16 16 17 18 18 18 17 17 16 16 18 19 20 20 20 19 19 19 19 20 20 20 20 19 20 21 22 21
42 42 41 41 40 40 39 38 35 33 30 28 27 26 25 25 25 24 23 22 21 21 21 21 21 21 20 19 18 18 17 17 17 17 17 17 16 16 16 15 16 16 16 17 17 17 17 17 17 17 17 17 18 19 19 19 19 19 19 20 19 19 19 19 19 19 19 20 20
42 41 41 41 40 39 38 36 33 30 28 26 25 25 24 24 24 24 23 21 21 21 21 21 21 21 20 18 17 17 16 16 16 16 16 16 16 16 16 16 16 16 17 17 17 16 16 17 17 17 17 17 17 17 18 18 19 19 19 19 19 19 19 19 19 19 19 19 19
41 41 41 40 39 37 35 33 30 28 26 25 25 24 24 23 23 23 22 21 21 21 21 20 20 20 19 18 17 16 16 16 16 16 15 15 15 15 15 16 16 16 16 16 16 16 16 17 17 17 17 18 18 18 18 18 18 18 19 19 19 19 19 20 20 20 19 19 20
40 40 39 38 36 34 31 29 27 26 25 24 24 24 23 23 22 23 22 21 21 20 20 19 19 19 19 19 17 16 15 15 15 15 15 15 15 15 15 16 16 16 15 15 15 16 16 16 17 17 18 18 18 19 19 19 19 19 19 19 19 19 20 21 21 21 20 20 21
39 38 37 35 32 30 28 26 25 25 24 24 24 24 24 23 22 22 22 21 20 19 19 18 18 18 17 17 17 17 16 14 14 15 15 15 15 15 16 16 16 15 14 14 14 14 15 15 16 16 17 18 18 19 19 20 20 20 20 20 20 20 21 21 21 21 20 20 21
37 35 34 31 29 27 26 25 25 25 24 24 23 23 23 23 22 22 22 21 20 19 18 17 17 17 16 16 16 17 17 15 15 15 15 15 15 15 15 15 15 15 14 14 14 14 14 15 15 16 16 17 18 19 19 20 20 20 21 21 21 21 21 21 21 21 21 21 21
34 33 30 28 26 25 25 25 24 24 24 24 23 23 23 22 22 21 21 21 20 19 17 17 16 16 16 16 16 16 16 16 16 15 16 15 15 15 15 15 15 14 14 14 14 14 15 15 16 16 17 19 20 20 21 21 21 22 22 22 22 22 22 22 21 21 21 21 21
32 30 29 27 25 25 24 24 24 24 24 23 22 22 21 21 21 20 20 20 19 18 17 17 16 16 16 16 16 16 16 17 16 16 16 16 16 16 16 16 15 15 15 15 16 16 17 18 19 20 21 22 23 23 23 23 23 24 24 24 24 23 23 23 22 22 21 21 21
31 29 27 26 25 25 25 24 23 23 22 22 21 20 20 19 19 19 20 20 19 19 18 19 18 18 17 17 17 17 17 17 16 16 16 16 16 17 17 16 15 16 16 18 20 21 21 22 23 24 24 25 25 25 25 25 25 24 24 24 24 24 23 23 23 22 21 21 20
30 28 27 25 25 25 25 24 23 22 21 21 20 19 19 19 19 19 20 20 19 19 19 20 20 19 18 18 17 17 17 17 16 16 16 16 16 17 17 16 16 18 21 23 25 25 25 25 26 26 26 26 25 25 25 25 25 24 24 24 23 23 23 23 22 22 21 21 21
30 28 27 26 27 26 25 24 24 23 21 20 20 19 18 18 18 18 18 18 18 18 18 19 19 19 19 17 17 17 16 16 16 16 16 16 16 16 16 17 19 21 23 25 27 28 28 28 28 28 28 27 27 26 26 25 25 24 24 23 23 23 23 23 23 23 22 21 21
29 28 27 27 27 26 25 25 25 24 23 22 21 20 18 18 18 18 18 18 18 18 18 18 18 18 18 16 16 16 16 16 16 16 16 16 16 16 17 19 21 23 25 26 27 29 30 30 30 30 30 29 28 27 26 26 25 24 24 23 23 23 23 24 23 23 23 22 21
28 28 27 27 26 25 25 25 25 24 24 23 22 20 18 18 18 18 18 18 18 18 18 18 18 18 18 16 16 16 16 16 16 16 16 16 16 17 18 20 21 24 25 26 28 29 30 31 31 31 30 29 28 28 27 26 25 25 24 24 24 24 23 24 24 23 23 21 20
28 27 26 26 25 25 24 23 23 23 23 22 20 19 18 18 18 18 18 18 18 18 18 18 19 20 20 17 17 17 17 18 17 16 16 16 17 18 19 21 22 24 25 27 28 29 30 31 31 31 31 30 29 28 27 26 26 25 25 24 24 23 23 23 23 23 22 21 19
27 26 26 25 25 24 23 22 21 20 19 19 19 19 18 18 17 17 17 17 17 18 18 18 19 19 19 19 18 18 18 19 19 19 18 18 19 19 20 21 21 23 25 27 28 29 30 30 31 31 31 30 29 28 27 26 26 25 24 24 23 23 22 22 22 22 21 19 19
26 25 25 25 24 23 22 20 19 18 18 19 18 17 17 16 17 17 17 17 17 18 19 19 19 20 20 20 20 20 20 20 20 21 21 20 20 20 21 22 24 25 27 27 28 28 29 30 30 30 31 31 30 28 27 26 25 25 24 23 23 23 22 22 22 21 21 20 20
26 25 25 25 24 22 20 18 18 18 18 18 17 16 16 16 16 16 17 17 18 19 20 20 20 20 20 20 21 21 21 22 22 21 21 19 20 20 21 23 25 26 28 27 28 28 28 29 30 30 30 30 30 28 26 25 25 24 24 24 23 23 23 22 22 21 21 21 20
26 25 25 24 23 21 20 18 19 18 17 16 16 16 16 16 16 17 18 19 21 21 22 21 21 20 21 21 21 22 22 23 23 21 20 20 21 22 22 23 24 26 28 27 27 27 28 28 28 29 29 30 30 28 26 25 25 24 24 23 23 23 23 22 22 21 21 21 21
26 25 24 22 21 19 18 17 17 17 16 16 16 16 17 18 20 21 21 22 22 22 22 21 20 20 21 21 21 22 22 22 22 22 22 22 21 21 21 21 23 26 29 28 27 27 27 27 28 28 28 29 30 28 26 25 25 24 24 23 22 22 22 21 21 21 21 21 20
25 24 21 20 18 17 16 16 16 16 17 17 18 18 19 21 22 22 21 21 21 21 20 20 20 20 20 20 21 21 22 21 21 22 23 23 22 22 21 21 23 26 29 27 27 27 27 27 27 27 28 29 29 28 26 25 25 24 23 22 22 21 21 21 21 21 21 20 20
26 23 20 18 18 17 17 17 19 20 20 20 20 20 21 21 21 21 20 21 21 20 20 20 20 20 20 20 21 21 21 21 21 21 21 22 22 22 21 20 21 25 28 27 26 26 26 26 26 27 28 29 28 26 25 25 24 23 22 21 21 21 20 20 20 20 20 19 19
25 21 19 18 18 18 18 20 21 21 21 20 20 21 21 22 21 21 21 21 21 20 20 20 21 21 21 21 21 21 21 20 19 19 20 21 21 21 21 21 23 26 28 26 26 26 26 26 26 27 28 28 27 25 24 24 23 22 21 21 20 20 19 18 18 19 19 19 20
21 19 18 17 17 18 19 20 20 20 20 20 20 21 22 21 21 21 21 22 21 20 20 20 20 21 21 21 20 20 20 18 17 17 18 19 19 20 20 21 22 25 27 26 25 25 25 25 26 27 27 27 26 25 24 23 22 21 21 20 20 20 19 19 18 18 19 20 21
19 17 17 17 17 18 19 19 19 20 20 20 21 21 22 21 21 21 21 21 20 20 20 20 20 20 20 20 19 20 20 19 18 17 18 18 18 18 19 20 20 23 25 25 25 25 25 25 26 27 27 27 25 24 23 22 22 21 21 20 20 20 19 19 19 19 20 21 23
20 19 19 18 18 18 19 19 19 19 20 21 21 21 21 21 21 21 21 21 20 19 20 20 20 21 21 21 20 20 20 20 19 18 17 17 17 18 19 19 19 21 24 24 24 24 25 25 26 26 27 27 25 23 22 22 21 21 21 20 20 19 19 20 20 20 21 23 26
25 23 21 21 19 19 19 19 20 20 21 21 21 21 20 20 20 20 21 20 20 20 20 20 21 21 22 22 20 19 18 19 19 18 17 16 18 20 21 19 19 21 23 23 22 23 24 25 25 26 26 27 24 23 22 22 21 21 21 20 20 19 19 19 20 21 22 23 26
27 24 21 20 19 19 20 20 20 21 22 22 21 20 20 20 20 21 21 21 20 21 21 21 21 22 22 23 20 19 18 18 19 19 18 18 20 23 23 19 19 20 21 21 21 22 23 24 25 25 26 27 24 23 22 22 21 21 20 20 19 19 19 20 21 21 21 21 24
24 21 19 19 19 20 21 21 21 22 22 22 21 21 21 21 21 20 20 20 20 20 20 20 21 21 22 22 21 19 17 18 19 19 19 19 21 23 24 20 19 19 20 21 22 22 23 24 25 25 26 26 25 23 23 22 21 21 20 20 20 20 21 21 21 21 21 21 21